BAW8844 SBGL-SBRJ

Flight info

Callsign BAW8844
Flight time 0h -12m
Altitude 25000
Route SIDUR DCT ASALU
Aircraft A388/J-SADE1E2E3GHIJ3J5M1P2RWXY/LB2D1

Departure

Time 2026-05-04 15:14
Airport Rio Galeão – Tom Jobim International Airport (SBGL)

Arrival

Time 2026-05-04 15:01
Airport Santos Dumont Airport (SBRJ)
Time Latitude Longitude Altitude Speed Heading
2026-05-04 15:01 -22.81826 -43.24460 39 ft 0 kts 124°
2026-05-04 15:06 -22.81819 -43.24471 39 ft 2 kts 124°
2026-05-04 15:06 -22.81810 -43.24484 39 ft 2 kts 124°
2026-05-04 15:06 -22.81802 -43.24498 39 ft 2 kts 131°
2026-05-04 15:07 -22.81775 -43.24512 39 ft 2 kts 176°
2026-05-04 15:07 -22.81760 -43.24511 39 ft 2 kts 197°
2026-05-04 15:07 -22.81748 -43.24505 39 ft 0 kts 214°
2026-05-04 15:07 -22.81745 -43.24503 39 ft 0 kts 216°
2026-05-04 15:09 -22.81749 -43.24505 39 ft 3 kts 216°
2026-05-04 15:10 -22.81869 -43.24597 39 ft 12 kts 214°
2026-05-04 15:10 -22.81946 -43.24635 39 ft 12 kts 192°
2026-05-04 15:10 -22.82096 -43.24723 39 ft 12 kts 214°
2026-05-04 15:11 -22.82154 -43.24711 39 ft 8 kts 137°
2026-05-04 15:11 -22.82192 -43.24659 39 ft 9 kts 126°
2026-05-04 15:11 -22.82232 -43.24601 39 ft 10 kts 126°
2026-05-04 15:11 -22.82278 -43.24532 39 ft 14 kts 125°
2026-05-04 15:12 -22.82337 -43.24452 39 ft 7 kts 161°
2026-05-04 15:12 -22.82360 -43.24482 39 ft 6 kts 254°
2026-05-04 15:12 -22.82361 -43.24536 39 ft 9 kts 274°
2026-05-04 15:12 -22.82305 -43.24774 39 ft 57 kts 303°
2026-05-04 15:13 -22.81964 -43.25290 39 ft 108 kts 305°
2026-05-04 15:13 -22.81430 -43.26098 40 ft 152 kts 307°
2026-05-04 15:13 -22.81277 -43.26322 372 ft 30 kts 307°
2026-05-04 15:13 -22.80808 -43.27005 396 ft 187 kts 308°
2026-05-04 15:14 -22.80022 -43.28144 731 ft 190 kts 307°
2026-05-04 15:14 -22.79253 -43.29335 1088 ft 195 kts 306°
2026-05-04 15:14 -22.78486 -43.30556 1505 ft 196 kts 306°
2026-05-04 15:14 -22.77706 -43.31784 1927 ft 197 kts 308°
2026-05-04 15:15 -22.76902 -43.32984 2343 ft 198 kts 309°
2026-05-04 15:15 -22.76091 -43.34186 2757 ft 198 kts 309°
2026-05-04 15:15 -22.75322 -43.35416 3139 ft 199 kts 296°
2026-05-04 15:16 -22.76096 -43.38206 3434 ft 217 kts 222°
2026-05-04 15:16 -22.77292 -43.39264 3679 ft 220 kts 219°
2026-05-04 15:16 -22.79648 -43.41399 4263 ft 220 kts 223°
2026-05-04 15:17 -22.80792 -43.42521 4548 ft 221 kts 224°
2026-05-04 15:17 -22.83021 -43.44796 5119 ft 220 kts 226°
2026-05-04 15:17 -22.84136 -43.45957 5398 ft 220 kts 226°
2026-05-04 15:18 -22.85237 -43.47110 5629 ft 224 kts 227°
2026-05-04 15:18 -22.86382 -43.48317 5784 ft 232 kts 227°
2026-05-04 15:18 -22.87563 -43.49567 5954 ft 240 kts 227°
2026-05-04 15:19 -22.90048 -43.52214 6304 ft 259 kts 227°
2026-05-04 15:19 -22.91352 -43.53614 6498 ft 267 kts 227°
2026-05-04 15:19 -22.94018 -43.56487 7190 ft 270 kts 227°
2026-05-04 15:20 -22.95340 -43.57917 7560 ft 270 kts 227°
2026-05-04 15:20 -22.96669 -43.59363 7928 ft 270 kts 227°
2026-05-04 15:20 -22.97986 -43.60802 8290 ft 271 kts 227°
2026-05-04 15:20 -22.99327 -43.62276 8661 ft 271 kts 227°
2026-05-04 15:21 -23.00655 -43.63740 8947 ft 272 kts 227°
2026-05-04 15:21 -23.01992 -43.65219 8976 ft 271 kts 227°
2026-05-04 15:21 -23.04621 -43.68129 8970 ft 271 kts 227°
2026-05-04 15:22 -23.05962 -43.69612 8976 ft 271 kts 227°
2026-05-04 15:22 -23.07312 -43.71048 8974 ft 272 kts 219°
2026-05-04 15:22 -23.10934 -43.71495 8988 ft 283 kts 154°
2026-05-04 15:23 -23.12505 -43.70179 8990 ft 285 kts 127°
2026-05-04 15:23 -23.13388 -43.68266 8968 ft 286 kts 100°
2026-05-04 15:23 -23.13404 -43.66130 8983 ft 285 kts 73°
2026-05-04 15:23 -23.12550 -43.64237 8982 ft 282 kts 46°
2026-05-04 15:24 -23.09109 -43.62577 8949 ft 275 kts 357°
2026-05-04 15:24 -23.05270 -43.62560 8905 ft 277 kts
2026-05-04 15:25 -23.03404 -43.61969 8799 ft 273 kts 24°
2026-05-04 15:25 -23.01829 -43.60791 8506 ft 275 kts 42°
2026-05-04 15:25 -23.00472 -43.59277 8178 ft 277 kts 46°
2026-05-04 15:26 -22.97942 -43.56170 7629 ft 274 kts 47°
2026-05-04 15:26 -22.96708 -43.54567 7346 ft 273 kts 56°
2026-05-04 15:26 -22.94987 -43.50942 6822 ft 270 kts 64°
2026-05-04 15:27 -22.94219 -43.49081 6551 ft 268 kts 64°
2026-05-04 15:27 -22.92726 -43.45375 6001 ft 266 kts 64°
2026-05-04 15:28 -22.91261 -43.41720 5466 ft 262 kts 64°
2026-05-04 15:28 -22.90534 -43.39910 5204 ft 260 kts 64°
2026-05-04 15:28 -22.89112 -43.36396 4867 ft 248 kts 65°
2026-05-04 15:29 -22.88425 -43.34700 4730 ft 241 kts 66°
2026-05-04 15:30 -22.88436 -43.27842 4138 ft 219 kts 98°
2026-05-04 15:30 -22.89696 -43.22866 2338 ft 225 kts 74°
2026-05-04 15:31 -22.87553 -43.22004 2255 ft 219 kts 284°
2026-05-04 15:31 -22.87977 -43.23436 2292 ft 215 kts 200°
2026-05-04 15:32 -22.91446 -43.21532 1581 ft 190 kts 139°
2026-05-04 15:32 -22.93524 -43.19725 1088 ft 188 kts 138°
2026-05-04 15:33 -22.94980 -43.17620 601 ft 175 kts 72°
2026-05-04 15:34 -22.92391 -43.16313 231 ft 177 kts 337°
2026-05-04 15:34 -22.91194 -43.16422 510 ft 173 kts
2026-05-04 15:34 -22.88852 -43.16022 1023 ft 158 kts 27°
2026-05-04 15:35 -22.88074 -43.14113 717 ft 173 kts 138°
2026-05-04 15:35 -22.89232 -43.13831 676 ft 174 kts 194°
2026-05-04 15:35 -22.90408 -43.14098 504 ft 170 kts 184°
2026-05-04 15:36 -22.92014 -43.14253 589 ft 152 kts 184°
2026-05-04 15:36 -22.92943 -43.14658 427 ft 139 kts 229°
2026-05-04 15:36 -22.93154 -43.15624 333 ft 140 kts 306°
2026-05-04 15:37 -22.92302 -43.16094 192 ft 139 kts 347°
2026-05-04 15:37 -22.91385 -43.16264 34 ft 117 kts 359°
2026-05-04 15:37 -22.90909 -43.16292 34 ft 32 kts 357°
2026-05-04 15:37 -22.90812 -43.16331 35 ft 8 kts 276°
2026-05-04 15:38 -22.90814 -43.16387 35 ft 6 kts 270°
2026-05-04 15:38 -22.90814 -43.16444 35 ft 7 kts 263°
2026-05-04 15:38 -22.90848 -43.16479 36 ft 6 kts 208°
2026-05-04 15:38 -22.90884 -43.16507 36 ft 7 kts 218°
2026-05-04 15:39 -22.90936 -43.16538 36 ft 8 kts 184°
2026-05-04 15:39 -22.91001 -43.16539 36 ft 9 kts 179°
2026-05-04 15:39 -22.91096 -43.16574 36 ft 6 kts 269°
2026-05-04 15:40 -22.91097 -43.16591 36 ft 0 kts 266°